Vertical_Velocity
2 1 -1 -2 -2 -1 -4 -2 -4 1 1 0 -1 -1 -1 0 -2 -1 -1 0 0 0 -1 -1 -0 -1 -1 -0 -1 0 1 -0 -1
1 2 2 0 -2 1 -2 -3 -3 -2 0 -1 1 -1 -0 -1 -2 -0 -1 0 -1 -0 -0 -0 -1 1 -1 -0 -1 -1 0 0 0
1 1 4 1 -0 -1 0 -2 -3 -3 0 -0 -1 0 -0 0 -0 -0 -1 -0 -1 -0 -0 0 0 -2 0 1 -0 -1 -1 -1 -2
2 1 3 3 1 -3 -0 -1 -2 -2 -1 0 -1 -1 -1 -1 -1 -1 -1 -1 -0 -0 -0 0 -1 0 -1 -2 -1 -1 -0 0 -0
-2 0 3 3 2 1 -0 -1 -0 -1 1 0 1 0 -0 -0 -0 -1 -1 1 -1 -1 -2 -1 -1 -1 -1 -2 -2 -1 -2 -2 -4
-1 -3 -0 0 1 1 -1 1 0 0 -2 2 0 -0 -0 -1 0 1 -2 -2 0 -0 0 -0 -1 -2 -2 -1 -1 -1 -1 -2 -0
2 -0 -1 -0 1 2 0 -0 0 2 -2 -1 1 0 2 1 -1 -1 -0 -1 -3 -2 -2 0 -0 -0 -0 -2 -0 0 -1 1 -1
0 0 1 1 1 -1 2 -2 -0 4 -1 -1 1 1 0 -1 -1 -1 0 0 -0 1 -1 -1 -1 -1 -0 -1 -0 0 1 2 1
0 -1 0 1 2 -1 2 0 -3 1 3 -1 -2 -1 -0 0 -1 0 -1 -1 0 -1 -1 -2 0 0 -1 -2 -3 -1 -1 -0 0
2 0 1 2 1 0 1 0 1 -0 2 0 -0 -0 -1 1 0 -1 1 -3 -2 -1 1 1 -2 -3 0 -0 2 1 -1 -1 2
0 0 0 3 2 -0 1 0 -0 0 -0 3 2 2 1 -0 0 -2 -1 1 -2 -4 0 -2 1 1 4 1 -1 -2 -3 -3 -7
2 1 2 2 0 2 1 1 0 0 -1 2 1 3 0 2 -0 1 1 1 2 -1 -3 -3 -5 0 -3 -1 1 -1 -1 -1 -0
-1 3 -0 1 1 1 1 1 2 0 2 1 1 0 1 3 1 -1 -2 0 1 -3 3 -1 -1 -2 -4 1 -3 -1 -1 -2 -2
-4 -1 7 1 2 0 1 2 1 -0 0 -3 -2 2 -1 2 -1 4 -2 -3 -2 -1 -5 -1 -1 -1 3 -3 2 2 -2 6 1
3 -2 3 -2 2 1 0 5 2 -0 2 1 1 0 -3 -1 -1 -1 3 -1 -3 -2 -1 -7 1 -1 2 1 -1 -0 -3 -2 -1
3 -2 3 1 -1 4 -3 2 -1 -1 2 -1 -1 -4 -6 0 -3 -2 -1 2 -1 -0 1 -3 -0 -8 -4 -2 1 4 7 1 2
-6 -6 -1 7 5 4 -0 2 -1 2 -0 3 8 3 3 1 4 4 6 -0 -2 0 -4 -2 -0 -2 -3 -3 1 -2 -3 -4 -2
-3 -3 -4 7 1 7 4 4 5 3 4 5 5 -2 3 -2 -3 2 0 -5 1 1 3 3 -7 1 -5 -2 -1 -2 0 2 -1
11 -1 -5 -2 0 3 5 24 2 3 10 1 -3 1 2 -3 2 -3 6 4 -1 -4 1 -2 4 0 4 -4 -1 -2 -3 -6 -4
7 -8 -1 2 -19 -6 -13 12 9 23 11 6 2 -2 -11 -9 -19 1 -18 1 4 1 -2 -3 -5 -4 3 -2 -2 -2 4 -2 -6
Height
3155 3157 3159 3161 3162 3163 3165 3166 3167 3168 3168 3169 3170 3170 3170 3170 3170 3170 3170 3169 3169 3168 3168 3167 3166 3165 3163 3162 3161 3160 3159 3158 3157
3156 3158 3160 3161 3163 3164 3166 3167 3168 3169 3170 3170 3170 3171 3171 3171 3170 3170 3171 3170 3170 3169 3168 3167 3166 3165 3164 3162 3161 3160 3159 3157 3156
3157 3159 3161 3162 3164 3165 3167 3168 3170 3170 3171 3171 3172 3172 3172 3172 3171 3171 3171 3171 3171 3170 3169 3168 3166 3165 3164 3162 3161 3160 3158 3157 3156
3158 3159 3161 3163 3164 3166 3167 3169 3170 3171 3171 3172 3172 3172 3172 3172 3172 3171 3171 3171 3170 3169 3168 3167 3166 3165 3164 3163 3161 3159 3157 3156 3155
3157 3159 3161 3163 3165 3166 3167 3168 3170 3170 3172 3172 3172 3172 3172 3172 3172 3172 3172 3171 3171 3170 3169 3168 3167 3165 3164 3162 3160 3158 3156 3155 3154
3157 3159 3161 3163 3165 3166 3167 3168 3169 3170 3171 3172 3172 3172 3172 3172 3171 3171 3171 3171 3170 3169 3168 3167 3166 3165 3163 3161 3160 3158 3157 3155 3154
3157 3160 3161 3163 3165 3167 3168 3168 3169 3170 3170 3171 3171 3171 3171 3171 3171 3171 3171 3171 3170 3169 3168 3167 3166 3163 3162 3161 3159 3158 3156 3155 3154
3156 3159 3161 3163 3164 3166 3167 3168 3168 3169 3170 3170 3170 3170 3170 3170 3170 3171 3170 3170 3169 3168 3167 3166 3164 3163 3161 3159 3158 3157 3155 3154 3152
3156 3159 3161 3163 3165 3166 3166 3168 3168 3168 3169 3169 3170 3169 3170 3170 3170 3170 3169 3168 3168 3167 3165 3163 3162 3161 3159 3158 3156 3154 3153 3152 3151
3155 3158 3160 3162 3164 3165 3166 3167 3167 3168 3168 3169 3170 3170 3170 3169 3169 3168 3167 3166 3166 3164 3164 3162 3161 3159 3157 3156 3155 3153 3152 3150 3149
3155 3157 3159 3160 3162 3163 3164 3165 3166 3166 3167 3167 3168 3168 3168 3168 3167 3166 3164 3164 3163 3162 3160 3159 3158 3157 3155 3154 3152 3150 3148 3147 3147
3152 3155 3157 3158 3160 3161 3162 3163 3164 3164 3165 3165 3166 3166 3165 3164 3163 3163 3162 3161 3161 3160 3158 3157 3155 3154 3153 3152 3150 3147 3147 3145 3143
3150 3153 3155 3157 3158 3159 3160 3160 3161 3161 3162 3163 3163 3163 3163 3162 3161 3160 3160 3159 3158 3156 3156 3153 3152 3151 3150 3149 3148 3145 3144 3143 3141
3147 3150 3151 3154 3155 3156 3157 3157 3158 3158 3159 3160 3160 3161 3160 3159 3159 3159 3158 3157 3155 3154 3152 3151 3150 3149 3147 3146 3145 3143 3140 3139 3137
3143 3146 3148 3150 3151 3152 3154 3154 3155 3155 3155 3156 3157 3157 3156 3156 3156 3155 3154 3154 3153 3151 3149 3148 3147 3146 3144 3143 3141 3138 3136 3134 3132
3139 3142 3144 3145 3146 3148 3148 3149 3150 3151 3151 3152 3153 3153 3153 3153 3153 3152 3151 3151 3149 3148 3147 3145 3144 3142 3141 3139 3138 3135 3132 3130 3128
3134 3137 3139 3140 3142 3143 3143 3144 3145 3145 3146 3148 3148 3147 3148 3148 3148 3148 3147 3147 3146 3145 3144 3141 3140 3138 3137 3135 3133 3131 3128 3126 3124
3130 3132 3135 3136 3137 3138 3138 3138 3138 3139 3139 3142 3143 3142 3144 3143 3143 3144 3143 3142 3142 3141 3140 3138 3136 3134 3132 3131 3129 3126 3124 3122 3120
3124 3126 3127 3129 3130 3132 3133 3132 3130 3132 3133 3135 3135 3135 3136 3138 3138 3138 3139 3138 3137 3136 3135 3134 3132 3130 3127 3125 3124 3121 3119 3117 3115
3117 3121 3123 3123 3124 3125 3126 3126 3126 3125 3124 3126 3130 3129 3130 3131 3134 3132 3131 3132 3132 3131 3129 3128 3127 3125 3123 3120 3118 3116 3113 3110 3108